Dewpoint
63 60 56 54 44 43 39 38 36 29 31 35 36 36 36 37 38 34 47 50 52 52 54 54 57 56 56 54 54 53 52 52 52 51 51 50 50 49 49 49 49 49 49 49 50 50 50 50 50
61 58 52 48 39 33 26 38 29 29 33 35 34 35 34 35 45 47 48 51 52 53 53 53 56 56 55 55 52 54 51 51 50 50 49 48 48 48 47 47 48 48 48 48 49 49 49 48 48
56 53 46 43 40 33 31 31 28 32 35 32 33 35 36 37 46 48 49 52 52 52 52 53 57 56 54 53 52 52 51 50 49 48 48 46 46 46 46 46 47 47 47 48 48 48 47 47 47
48 48 43 39 36 34 33 30 29 32 31 33 33 33 37 42 47 48 51 51 50 51 52 56 55 54 52 52 52 51 52 49 48 47 44 45 46 44 46 44 45 45 46 46 46 46 46 45 46
42 42 38 33 32 32 29 26 30 30 29 31 31 32 36 42 48 50 50 50 50 50 52 53 54 53 52 52 51 49 50 49 46 43 44 44 44 44 45 43 40 42 43 43 44 44 43 43 44
39 33 32 29 27 23 24 26 27 28 30 31 33 35 36 46 48 49 49 49 49 49 50 52 54 52 50 50 48 48 49 46 44 43 44 43 43 43 43 42 40 39 40 40 41 42 46 47 46
37 33 30 28 26 24 21 27 26 28 30 29 34 33 39 44 48 48 47 48 48 47 47 48 50 51 49 46 46 48 47 45 44 45 44 42 43 41 42 41 41 43 42 42 42 47 44 43 43
37 33 31 28 23 19 21 26 27 28 29 33 34 32 35 41 46 46 46 46 45 44 46 46 48 46 43 43 47 47 46 45 45 45 43 41 42 41 41 42 43 42 42 41 41 45 42 41 40
28 21 19 18 18 18 20 24 28 31 30 32 32 35 37 45 45 44 43 41 41 43 44 43 44 44 42 42 45 47 46 45 45 44 44 39 37 37 38 40 40 40 43 39 44 41 39 39 38
25 23 21 21 19 17 18 23 26 28 29 30 33 38 44 44 44 44 43 41 39 42 43 42 43 43 41 41 42 44 46 43 43 41 36 35 37 38 38 38 39 39 39 40 40 38 37 36 33
24 17 17 16 16 18 19 22 26 28 27 29 31 39 42 43 43 43 40 39 37 42 42 42 42 43 42 42 40 41 43 44 42 38 35 34 34 34 33 32 32 33 38 34 33 32 32 33 34
25 15 15 13 16 16 16 22 25 27 28 28 34 39 41 42 42 39 37 37 39 40 41 41 41 42 42 40 39 41 39 40 39 38 35 34 33 32 32 30 31 32 35 34 33 32 32 33 34
13 12 16 16 15 14 18 18 22 27 32 34 37 39 40 41 39 37 38 39 40 40 40 40 40 40 40 37 36 36 36 38 35 37 37 35 33 32 32 30 31 31 35 34 33 32 31 32 34
15 15 16 14 15 15 17 17 19 26 31 34 37 37 38 38 38 39 40 40 40 39 40 40 39 39 38 37 36 36 36 35 34 37 37 35 34 32 32 30 30 30 32 33 34 32 32 32 32
19 16 14 15 18 17 19 15 18 30 30 32 35 36 37 38 39 39 40 40 40 40 40 40 39 39 38 37 36 35 35 34 33 34 37 36 34 33 33 31 30 30 30 31 33 32 33 32 31
14 14 10 12 18 18 16 13 21 30 29 29 32 34 35 37 38 39 40 40 41 40 40 41 40 40 38 38 38 37 35 35 34 34 34 35 35 33 32 31 31 32 31 31 30 32 31 30 29
13 9 11 15 17 18 20 23 26 28 31 29 28 31 33 35 34 38 39 40 40 40 41 40 40 39 39 39 39 32 33 33 32 33 34 34 35 35 32 32 32 32 31 31 30 31 31 30 29
12 13 19 15 16 23 26 28 30 30 26 28 29 28 30 32 32 34 38 39 39 40 40 40 40 40 36 33 32 31 31 31 31 30 31 32 34 34 34 33 32 32 31 31 30 30 31 30 29
19 19 17 19 19 23 29 30 31 31 25 25 30 27 27 29 30 35 37 39 40 40 40 39 39 33 32 31 30 30 30 30 31 30 31 31 31 32 32 33 33 32 31 31 30 30 30 29 29
23 23 23 23 23 22 31 32 32 32 26 25 28 27 27 32 34 36 37 38 39 39 39 39 35 32 30 31 31 31 31 31 32 31 31 31 31 31 31 31 31 31 32 31 30 29 28 28 29
22 24 26 25 25 24 28 27 35 37 32 27 25 27 30 34 35 36 37 38 39 39 38 34 32 30 31 31 31 31 31 31 30 29 30 30 32 32 32 31 31 31 30 30 30 29 29 28 29
22 28 29 28 25 21 28 23 34 35 36 34 27 31 34 35 36 37 37 38 38 36 34 31 31 31 31 30 30 29 28 28 29 29 30 31 32 32 32 32 31 30 30 29 29 30 29 29 28
26 32 31 30 26 27 32 28 32 35 33 32 29 34 35 35 36 36 36 35 34 33 32 30 30 30 30 30 30 29 28 29 30 30 30 30 30 31 31 32 31 30 30 29 29 29 29 30 29
32 31 28 29 27 24 32 29 31 33 32 31 34 34 35 35 35 35 35 35 35 33 29 28 28 28 30 29 29 29 28 28 29 29 28 29 30 30 30 30 30 30 30 29 30 30 30 30 31
33 28 20 17 21 18 33 31 31 34 32 33 34 35 35 35 35 35 32 29 27 26 26 27 28 28 28 29 29 29 29 29 28 28 29 28 28 28 28 29 29 30 30 30 31 32 32 32 32
32 31 22 15 21 25 32 31 32 31 33 34 34 35 35 35 35 31 28 27 26 27 27 28 28 28 28 28 29 30 29 29 29 29 28 28 28 28 28 29 30 30 31 32 34 34 34 35 34
35 32 37 30 23 23 30 34 38 30 32 33 34 35 35 35 34 31 31 30 28 28 28 28 28 28 28 28 29 29 29 28 27 27 28 28 29 28 30 30 31 32 33 35 34 33 33 34 33
35 35 29 27 15 10 23 31 34 37 30 33 33 34 35 36 33 33 32 31 30 29 29 29 28 27 28 28 27 27 27 26 26 27 27 28 29 30 30 31 34 35 34 33 32 32 32 32 32
32 27 26 30 28 23 23 28 37 39 37 31 33 34 35 35 34 34 34 31 30 28 27 27 27 27 27 27 26 25 24 25 26 27 28 30 31 31 33 35 34 33 32 33 32 32 32 31 31
30 32 26 19 23 29 29 29 40 41 41 32 33 34 35 36 36 35 33 30 28 27 26 26 27 26 25 25 25 24 24 25 26 28 30 31 33 33 34 34 33 32 32 32 32 31 31 30 30
Lifted_Index
5 5 3 2 2 3 3 3 4 4 4 4 4 4 3 2 2 2 4 5 6 6 6 7 7 7 8 9 9 10 11 11 12 12 13 13 14 14 14 14 14 14 14 14 14 14 14 15 15
5 4 3 2 2 3 3 4 4 4 4 4 4 4 3 3 2 3 4 5 6 6 6 7 7 7 8 9 9 10 11 12 12 13 13 14 14 14 14 14 14 14 14 14 14 14 15 15 15
5 4 3 3 3 3 4 5 5 5 4 4 4 4 4 4 3 4 4 6 6 6 6 7 7 8 8 9 10 10 11 12 13 13 14 14 14 15 15 15 15 15 15 15 15 15 15 15 15
4 4 3 3 3 4 5 5 5 5 4 4 4 4 4 5 5 5 5 6 6 6 6 7 7 8 9 10 10 11 11 12 13 14 14 15 15 15 15 15 15 15 15 15 15 15 16 16 15
5 4 4 4 4 5 5 6 6 5 4 3 3 3 4 5 6 6 6 6 7 7 7 7 8 9 10 10 11 11 12 13 14 14 15 15 15 15 15 15 16 16 16 16 16 16 15 15 15
5 5 4 3 4 5 6 6 6 5 4 3 3 3 4 5 6 6 6 7 7 7 7 8 8 9 10 11 12 12 12 13 14 14 15 15 15 15 15 15 16 16 16 16 16 15 15 15 15
5 5 4 3 3 4 6 6 6 5 4 4 4 4 4 5 6 7 7 8 8 8 8 8 9 10 11 12 12 12 13 13 14 14 14 15 15 15 15 15 15 15 15 16 15 15 15 16 16
5 5 4 3 3 4 5 6 6 5 4 4 4 4 4 5 6 7 8 8 8 9 9 9 9 10 12 12 12 12 12 13 13 13 14 15 16 16 16 16 15 15 15 15 15 16 16 17 17
6 5 4 4 4 5 5 6 5 4 3 3 3 3 3 4 5 6 7 7 8 9 9 10 10 11 12 12 12 11 12 12 13 13 14 15 16 17 17 16 16 16 16 16 16 16 17 18 18
7 6 5 5 6 6 5 5 5 4 3 3 3 3 3 3 4 5 5 6 7 8 10 10 11 11 12 12 11 11 11 11 12 12 13 15 16 17 17 17 17 17 16 16 17 17 18 18 18
6 6 6 6 6 6 5 5 5 4 3 3 3 3 2 2 3 4 4 5 6 8 10 11 11 11 11 11 11 10 10 11 11 12 13 14 15 15 16 16 17 17 17 17 17 17 18 18 18
6 6 6 7 6 6 5 5 5 4 4 4 3 3 2 2 3 4 4 5 6 8 9 10 10 10 10 10 10 10 10 10 11 12 13 13 14 14 14 15 15 16 16 17 17 17 18 18 18
6 6 6 6 6 6 5 5 5 5 4 4 3 3 2 3 3 4 5 5 6 7 8 9 9 9 9 9 9 10 10 11 11 12 12 13 13 13 13 14 14 15 15 16 16 17 18 18 18
6 6 6 6 6 5 5 4 4 5 4 4 3 3 3 3 3 3 4 4 5 6 7 8 8 9 9 9 9 9 10 10 10 11 12 12 12 13 13 13 14 14 15 15 16 17 17 18 18
6 5 5 5 5 5 5 4 4 5 4 4 4 3 3 3 3 3 3 4 4 5 5 7 8 9 9 9 9 9 9 9 10 10 11 11 12 12 12 13 13 14 15 15 16 16 17 17 18
5 5 5 5 5 5 5 4 4 5 5 4 4 3 3 3 3 3 3 4 4 4 5 6 7 8 8 8 8 8 8 8 9 10 11 11 12 12 12 12 13 14 14 15 15 16 17 17 17
4 4 4 4 5 5 4 4 4 4 4 4 4 4 3 3 3 3 3 4 4 4 4 5 6 7 7 7 7 7 8 8 10 11 12 12 12 12 12 12 13 13 14 14 15 15 16 17 17
4 4 4 4 5 5 4 4 4 4 4 4 3 3 3 3 3 3 3 4 4 4 4 5 6 6 6 6 6 7 7 9 10 12 12 12 12 12 12 12 12 13 13 13 14 15 15 16 17
4 4 4 4 4 4 4 4 4 4 3 3 3 3 3 3 3 3 4 4 4 4 4 5 5 5 5 5 6 6 7 9 10 12 12 13 12 12 12 12 12 13 13 13 13 14 14 15 16
4 4 3 4 4 4 4 4 4 3 3 3 2 2 3 3 3 4 4 3 4 4 4 5 5 5 5 5 6 7 7 9 10 12 12 13 13 13 13 13 13 13 14 14 14 14 14 15 15
4 4 3 3 4 3 3 3 3 2 2 2 2 3 3 3 3 4 3 3 3 4 4 5 5 5 5 6 6 7 8 9 11 12 12 13 13 13 13 14 14 14 15 15 15 15 15 15 15
4 4 4 3 3 3 2 2 2 1 2 2 2 3 3 3 3 3 3 3 3 4 4 4 5 5 5 6 7 8 9 11 12 13 13 13 14 14 14 15 15 15 16 16 16 16 15 15 15
4 4 4 3 2 2 1 1 1 1 2 2 3 3 3 3 3 3 3 3 4 4 4 4 5 5 6 7 8 10 11 12 13 13 14 14 15 15 15 16 16 16 16 16 17 16 16 16 16
4 4 3 2 1 1 1 1 1 2 3 3 3 3 3 3 3 4 4 4 4 4 4 5 5 6 8 9 11 12 13 13 14 15 15 15 16 16 16 17 17 17 17 17 17 17 16 16 16
4 3 2 1 1 0 1 1 2 3 3 4 3 3 3 3 4 4 4 4 4 4 5 5 7 8 10 12 12 13 14 14 15 16 16 16 16 16 17 17 17 17 17 17 17 17 16 16 16
2 2 1 0 0 1 1 1 2 3 4 4 4 4 4 4 4 4 4 4 4 5 6 8 9 11 12 13 14 14 15 16 16 16 16 17 17 17 17 17 17 17 17 17 17 17 16 16 16
2 1 1 0 0 1 1 1 1 2 3 4 4 4 4 4 4 4 4 4 5 6 8 10 12 13 14 14 15 16 16 17 17 17 17 17 17 17 17 17 17 17 17 17 17 17 17 17 17
2 1 1 0 0 0 1 1 1 1 3 4 5 4 4 4 4 4 5 5 7 8 10 12 13 14 15 16 16 17 17 17 18 18 18 18 18 18 18 18 18 18 18 18 18 18 18 18 17
2 1 1 1 1 0 0 1 1 1 2 3 4 5 4 4 4 5 5 6 8 10 12 13 14 15 16 17 17 18 18 18 19 19 19 19 18 17 18 18 18 18 18 18 19 18 18 17 17
2 1 1 1 1 1 1 1 1 1 2 3 4 5 4 4 4 5 5 7 9 11 12 13 14 15 16 17 17 18 18 19 20 20 20 19 18 17 18 18 19 19 19 19 18 18 17 16 16